Regional Weather Roundup
Issued by NWS

Home | Current Version | Previous Version | Graphics & Text | Print | Product List | Glossary On
Versions: 1 2 3 4 5 6 7 8 9 10 11 12 13 14 15 16 17 18 19 20 21 22 23 24 25 26 27 28 29 30 31 32 33 34 35 36 37 38 39 40 41 42 43 44 45 46 47 48 49 50
000
ASUS43 KMPX 101310
RWRMN
WEATHER ROUNDUP FOR MINNESOTA
NATIONAL WEATHER SERVICE TWIN CITIES/CHANHASSEN MN
700 AM CST WED FEB 10 2016


NOTE: "FAIR" INDICATES FEW OR NO CLOUDS BELOW 12,000 FEET WITH NO
SIGNIFICANT WEATHER AND/OR OBSTRUCTIONS TO VISIBILITY. N/A MEANS
CURRENT SKY AND/OR WEATHER CONDITIONS ARE NOT AVAILABLE.

MNZ060>063-068>070-101400-
   Twin Cities Metro

CITY           SKY/WX    TMP DP  RH WIND       PRES   REMARKS
TWIN CITIES    CLOUDY     3  -5  69 N8        30.12S WCI -10
ST PAUL        CLOUDY     3  -5  69 N7        30.14S WCI  -9
CRYSTAL        CLOUDY     4  -5  66 NE3       30.11S
BLAINE         MOCLDY     3  -2  78 N5        30.11S WCI  -6
LAKEVILLE      CLOUDY     1  -2  85 CALM      30.10F
EDEN PRAIRIE   PTCLDY     5  -4  66 NW3       30.10F
SOUTH ST PAUL  CLOUDY     4  -5  66 CALM      30.12S
LAKE ELMO      FAIR       1  -4  78 CALM      30.11F
$$
MNZ001>005-007-008-013>017-022>024-027-028-101400-
   Northwest Minnesota

CITY           SKY/WX    TMP DP  RH WIND       PRES   REMARKS
BEMIDJI        CLOUDY    -6 -10  83 E5        30.08S WCI -18
HALLOCK        CLOUDY     1  -6  71 SE5       30.15S WCI  -8
ROSEAU         CLOUDY   -11 -17  77 CALM      30.15R
WARROAD        CLOUDY   -15 -20  76 CALM      30.15R
THIEF RVR FALL CLOUDY     0  -8  71 E6        30.13R WCI -12
CROOKSTON      CLOUDY     3  -2  78 SE7       30.14S WCI  -9
FOSSTON          N/A     -2  -8  78 E5        30.09S WCI -12
DETROIT LAKES  CLOUDY     3  -2  78 SE6       30.09R WCI  -8
MOORHEAD       MIX PCPN   7   1  78 SE6       30.11R WCI  -3
PARK RAPIDS    CLOUDY    -2  -8  76 E3        30.06R
MAHNOMEN       CLOUDY     1  -5  76 E5        30.09R WCI  -9
$$
MNZ006-009>011-018-025>026-101400-
   North Central Minnesota

CITY           SKY/WX    TMP DP  RH WIND       PRES   REMARKS
BAUDETTE       PTCLDY   -23 -30  70 CALM      30.13R
FLAG ISLAND    PTCLDY   -17 -20  83 CALM      30.15R
INTL FALLS     PTCLDY   -16 -21  78 NE6       30.13R WCI -31
WASKISH        CLOUDY   -17 -22  76 CALM      30.12R
LONGVILLE      CLOUDY    -8 -11  84 CALM      30.09R
GRAND RAPIDS   CLOUDY    -9 -17  70 CALM      30.06S
CRANE LAKE     CLOUDY   -27 -33  75 CALM      30.15F
ORR            PTCLDY   -24 -29  76 CALM      30.06S
COOK           CLOUDY   -27 -33  75 CALM      30.09S
WALKER         FAIR      -6 -10  81 CALM      30.08F
$$
MNZ012-019>021-037-101400-
   Northeast Minnesota

CITY           SKY/WX    TMP DP  RH WIND       PRES   REMARKS
DULUTH         CLOUDY   -10 -16  74 N9        30.03F WCI -27
ELY            CLOUDY   -15 -18  84 CALM      30.07F
HIBBING        PTCLDY   -20 -23  86 CALM      30.07F
EVELETH        PTCLDY   -11 -17  77 CALM      30.07F
DULUTH HARBOR  CLOUDY     0  -6  78 N12G17    30.14F WCI -18
TWO HARBORS    CLOUDY   -11 -18  70 CALM      30.06R
SILVER BAY     CLEAR    -15 -20  76 CALM      30.06S
GRAND MARAIS     N/A     -9 -18  64 N22G33    30.10R WCI -35
G MARAIS ARPRT CLOUDY   -17 -24  70 NW10      29.98R WCI -37
$$
MNZ029>031-032-039>041-046>048-054>057-064-101400-
   West Central Minnesota

CITY           SKY/WX    TMP DP  RH WIND       PRES   REMARKS
FERGUS FALLS   LGT SNOW   5   0  78 SE5       30.13R WCI  -4
WHEATON        LGT SNOW   9   7  92 E10       30.09F WCI  -6
MORRIS         LGT SNOW   7   1  78 SE9       30.07S WCI  -7
ALEXANDRIA     CLOUDY     3  -4  72 E6        30.07R WCI  -8
ELBOW LAKE     LGT SNOW   5  -1  77 SE8       30.07F WCI  -8
WADENA         CLOUDY     0  -6  78 CALM      30.07S
GLENWOOD       CLOUDY     3  -2  78 E5        30.07S WCI  -6
APPLETON       LGT SNOW   9   3  78 E9        30.09S WCI  -5
BENSON         MIX PCPN   7   0  72 CALM      30.08F
ORTONVILLE     LGT SNOW   7   3  85 E8        30.07F WCI  -6
MADISON        LGT SNOW  10   5  79 E12       30.08F WCI  -4
WILLMAR        CLOUDY     7   1  78 E3        30.09F
$$
MNZ033>034-036-042>043-049>051-058-059-101400-
   Central Minnesota

CITY           SKY/WX    TMP DP  RH WIND       PRES   REMARKS
ST CLOUD       PTCLDY     1  -5  75 N3        30.11R
SAUK CENTRE    CLOUDY     2  -5  73 E5        30.09R WCI  -8
PAYNESVILLE    CLOUDY     4  -3  72 E3        30.09F
AITKIN         CLOUDY    -6 -13  71 CALM      30.08S
PINE RIVER     CLOUDY    -4  -9  77 CALM      30.12R
BRAINERD       CLOUDY    -3  -8  79 N3        30.10R
STAPLES        CLOUDY    -2  -8  78 CALM      30.08S
LONG PRAIRIE   CLOUDY     1  -6  71 CALM      30.08R
LITTLE FALLS   CLOUDY     0  -8  71 CALM      30.11S
LITCHFIELD     CLOUDY     5   0  78 CALM      30.09F
BUFFALO        CLOUDY     3  -4  71 CALM      30.13R
MAPLE LAKE     CLOUDY     4  -1  78 CALM      30.12R
$$
MNZ037-044-045-052-053-101400-
   East Central Minnesota

CITY           SKY/WX    TMP DP  RH WIND       PRES   REMARKS
PRINCETON      PTCLDY     1  -6  71 N6        30.11R WCI -10
MORA           PTCLDY    -2  -8  78 N5        30.12R WCI -12
CAMBRIDGE        N/A      1  -8  66 CALM      30.10R
RUSH CITY      CLOUDY    -2  -7  80 N6        30.11S WCI -14
MOOSE LAKE     CLOUDY    -8 -15  71 CALM      30.09S
HINCKLEY       FAIR      -4  -8  84 N6        30.10S WCI -16
CLOQUET        CLOUDY   -11 -17  77 NW6       30.06S WCI -25
MCGREGOR       CLOUDY    -8 -11  84 CALM      30.09S
$$
MNZ071>073-080-081-089-090-097-098-101400-
   Southwest Minnesota

CITY           SKY/WX    TMP DP  RH WIND       PRES   REMARKS
MONTEVIDEO     LGT SNOW   7   3  85 SE6       30.11S WCI  -3
GRANITE FALLS  LGT SNOW   9   5  83 E7        30.10F WCI  -2
CANBY          LGT SNOW  13  10  88 SE9       30.06F WCI   0
MARSHALL       LGT SNOW   9   5  84 E8        30.06F FOG     WCI  -3
REDWOOD FALLS  LGT SNOW   7   2  80 E5        30.09F WCI  -2
OLIVIA         CLOUDY    10   3  72 E3        30.09S
PIPESTONE      LGT SNOW  16   7  67 SE9       29.97F WCI   4
WINDOM         LGT SNOW   9   3  78 CALM      30.05S
WORTHINGTON    CLOUDY    10   7  85 E9        30.02F WCI  -2
JACKSON        LGT SNOW  10   5  79 E7        30.04F WCI   0
TRACY          LGT SNOW  10   6  86 E7        30.05S WCI  -1
SLAYTON        LGT SNOW  11  10  95 E7        30.01F WCI   1
$$
MNZ065>067-074>077-082>085-091>093-101400-
   South Central Minnesota

CITY           SKY/WX    TMP DP  RH WIND       PRES   REMARKS
MANKATO        CLOUDY     3   0  85 CALM      30.10S
NEW ULM        CLOUDY     7  -2  66 CALM      30.10F
ST JAMES       FLURRIES   7   3  85 CALM      30.10F
FAIRMONT       CLOUDY     7   0  72 NE3       30.07F
GLENCOE        CLOUDY     6  -1  73 N3        30.11R
FARIBAULT        N/A      1  -4  78 CALM      30.10R
OWATONNA       CLOUDY     1  -4  78 CALM      30.08S
WASECA         CLOUDY     3  -2  78 N3        30.10S
ALBERT LEA     CLOUDY     3   0  85 CALM      30.07S
$$
MNZ078>079-086>088-094>096-101400-
   Southeast Minnesota

CITY           SKY/WX    TMP DP  RH WIND       PRES   REMARKS
ROCHESTER      PTCLDY    -1  -6  79 NW7       30.06S WCI -14
RED WING       CLOUDY     0  -8  71 CALM      30.11S
STANTON        PTCLDY     0  -5  79 CALM      30.09F
DODGE CENTER   CLOUDY     1  -6  71 N5        30.05S WCI  -8
WINONA         CLOUDY     3  -4  72 CALM      30.13R
AUSTIN         CLOUDY     1  -2  85 CALM      30.07S
PRESTON        CLOUDY    -2  -8  77 NW7       30.06S WCI -16
$$
ABBREVIATIONS USED IN REMARKS
   TC - TEMPERATURES IN CELSIUS
  WCI - WIND CHILL INDEX
   HX - HEAT INDEX
  VSB - VISIBILITY
$$



USA.gov is the U.S. government's official web portal to all federal, state and local government web resources and services.